Lid_Strength_Index
0 -0 0 0 1 2 2 3 4 4 5 5 4 3 3 3 2 2 3 5 6 7 8 8 8 8 8 7 6 5 4 2 4 3 2 2 2 2 2 2 2 3 3
-0 1 2 2 3 4 4 4 5 5 5 5 5 4 4 3 4 5 5 4 6 6 5 7 8 8 9 8 7 7 6 5 4 4 3 3 3 3 3 4 4 4 4
1 2 2 2 4 6 5 4 4 5 6 6 5 5 5 4 5 5 6 6 6 6 4 5 6 8 8 9 9 8 7 7 6 5 4 4 4 5 5 4 4 4 4
2 1 2 5 5 5 3 2 2 2 2 3 4 4 4 4 5 7 7 8 7 7 6 5 6 7 8 8 8 8 8 8 7 6 6 5 5 6 5 7 6 5 5
2 3 3 4 4 4 3 3 2 2 3 4 4 4 5 6 6 8 8 9 8 8 7 7 5 5 6 7 7 7 7 8 8 8 7 7 7 8 9 7 7 5 4
2 1 2 3 3 4 4 3 3 4 4 5 5 5 6 7 7 7 7 7 6 5 5 6 6 7 6 7 8 8 8 8 8 8 8 9 9 8 7 6 6 6 7
1 1 3 3 4 4 3 3 4 5 5 5 5 5 5 6 7 7 7 6 6 6 6 6 7 7 6 6 9 8 8 8 8 6 7 7 6 5 4 6 6 5 5
2 3 3 4 5 5 3 4 4 4 5 5 4 5 5 6 7 7 6 6 6 6 6 7 6 6 7 6 5 5 4 4 4 4 4 4 4 4 4 5 4 3 3
3 3 4 5 5 3 4 4 4 5 5 4 4 5 5 5 6 6 6 5 5 5 4 5 4 4 7 7 4 5 4 5 5 5 6 6 6 6 5 3 4 4 5
3 3 4 4 4 5 5 4 5 4 4 4 4 4 5 4 7 7 6 4 4 5 4 4 6 6 7 7 4 4 5 4 4 3 4 4 5 4 5 3 3 5 5
3 3 4 4 4 4 4 5 6 6 5 5 5 4 4 5 5 7 7 4 5 4 4 4 4 6 7 7 6 4 4 5 5 5 5 4 3 3 3 3 2 3 4
3 3 4 5 4 3 4 4 5 5 6 5 6 6 6 5 7 7 8 8 6 5 6 4 4 7 7 7 5 7 6 5 4 5 6 6 6 5 5 4 4 4 4
3 4 5 5 4 3 4 5 6 5 5 5 6 7 6 6 6 7 7 7 6 4 4 5 6 6 6 5 6 6 5 5 5 5 6 6 5 5 4 4 4 4 4
3 4 5 5 4 4 4 4 6 6 6 6 7 7 7 7 6 6 4 4 5 4 4 3 4 5 6 5 4 4 5 4 5 6 6 6 5 5 5 5 5 5 6
4 4 4 4 4 4 3 3 5 6 8 8 8 6 7 8 8 8 6 5 4 4 4 3 4 5 5 5 6 4 5 5 5 5 5 6 6 5 6 5 6 7 8
3 4 4 4 4 4 5 4 8 8 9 10 10 9 5 9 10 9 9 9 9 8 6 6 7 7 7 6 6 7 6 6 5 5 6 5 6 6 6 6 6 7 8
3 4 3 5 4 4 5 5 6 6 8 8 9 9 10 10 10 10 10 9 9 7 7 6 5 6 7 7 7 6 7 6 5 6 6 6 6 6 7 7 7 7 8
4 6 4 4 4 4 4 4 4 4 4 4 7 8 9 9 9 9 9 8 5 5 5 5 5 6 6 7 7 7 6 5 5 5 5 6 7 7 7 7 7 7 7
4 4 3 3 3 4 4 3 4 3 3 4 3 5 6 8 9 9 8 4 5 5 5 5 5 5 5 5 6 7 6 6 6 6 6 6 5 6 6 7 7 11 9
4 6 6 3 3 3 3 3 4 3 4 4 4 4 5 5 5 4 4 4 4 4 4 5 4 4 4 4 5 5 6 6 5 4 5 5 5 5 6 6 7 8 8
4 4 9 3 3 3 3 3 3 3 3 4 4 5 13 4 5 4 4 5 5 5 5 4 5 4 3 3 4 5 5 5 5 5 4 3 3 3 4 5 6 7 7
3 4 3 3 3 3 3 3 3 2 3 3 4 5 11 5 6 6 4 5 5 5 5 5 5 4 4 3 4 6 6 5 7 6 4 3 2 3 4 5 5 6 7
4 4 4 4 4 6 3 3 3 3 3 3 5 5 6 5 4 4 4 4 5 4 4 5 5 5 5 4 5 5 6 6 6 4 3 2 3 2 3 4 5 5 6
4 4 4 4 5 4 4 4 4 6 3 3 3 3 4 5 5 4 5 5 4 4 4 4 5 5 5 5 6 6 6 8 8 4 4 2 2 3 2 3 4 4 4
5 4 4 4 4 5 5 5 4 4 4 4 4 5 4 5 5 5 5 4 4 4 4 4 4 4 4 4 6 7 11 13 10 12 3 1 2 3 3 4 4 4 4
5 5 4 4 4 5 5 5 4 4 5 5 5 5 5 5 6 6 4 5 5 5 4 4 3 3 4 4 6 11 13 14 11 13 8 1 1 0 1 3 3 3 4